Time,TemperatureF,DewpointF,PressureIn,WindDirection,WindDirectionDegrees,WindSpeedMPH,WindSpeedGustMPH,Humidity,HourlyPrecipIn,Conditions,Clouds,dailyrainin,SoftwareType,DateUTC
2013-03-31 00:03:00,49.0,-99.9,-100.00,SE,145,2.0,3.0,99,0.00,,,-99.99,,2013-03-31 04:03:00,
2013-03-31 00:13:00,49.0,49.0,-100.00,SE,145,2.0,4.0,99,0.00,,,-99.99,,2013-03-31 04:13:00,
2013-03-31 00:23:00,49.0,49.0,-100.00,SE,145,2.0,4.0,99,0.00,,,-99.99,,2013-03-31 04:23:00,
2013-03-31 00:33:00,48.0,48.0,-100.00,SE,140,2.0,3.0,99,0.00,,,-99.99,,2013-03-31 04:33:00,
2013-03-31 00:42:00,48.0,48.0,-100.00,SE,145,2.0,4.0,99,0.00,,,-99.99,,2013-03-31 04:42:00,
2013-03-31 00:52:00,49.0,49.0,-100.00,SE,145,2.0,4.0,99,0.00,,,-99.99,,2013-03-31 04:52:00,
2013-03-31 01:02:00,49.0,49.0,-100.00,SSE,150,3.0,7.0,99,0.00,,,-99.99,,2013-03-31 05:02:00,
2013-03-31 01:12:00,49.0,49.0,-100.00,SE,135,3.0,6.0,99,0.00,,,-99.99,,2013-03-31 05:12:00,
2013-03-31 01:22:00,50.0,49.0,-100.00,SE,135,3.0,7.0,99,0.00,,,-99.99,,2013-03-31 05:22:00,
2013-03-31 01:32:00,50.0,49.0,-100.00,SE,145,3.0,5.0,99,0.00,,,-99.99,,2013-03-31 05:32:00,
2013-03-31 01:42:00,50.0,50.0,-100.00,SE,140,3.0,4.0,99,0.00,,,-99.99,,2013-03-31 05:42:00,
2013-03-31 01:52:00,50.0,50.0,-100.00,SE,145,3.0,5.0,99,0.00,,,-99.99,,2013-03-31 05:52:00,
2013-03-31 02:02:00,50.0,49.0,-100.00,SE,145,3.0,5.0,99,0.00,,,-99.99,,2013-03-31 06:02:00,
2013-03-31 02:12:00,49.0,49.0,-100.00,SE,145,2.0,6.0,99,0.00,,,-99.99,,2013-03-31 06:12:00,
2013-03-31 02:22:00,50.0,49.0,-100.00,SSE,155,3.0,9.0,99,0.00,,,-99.99,,2013-03-31 06:22:00,
2013-03-31 02:33:00,50.0,49.0,-100.00,SE,130,4.0,6.0,99,0.00,,,-99.99,,2013-03-31 06:33:00,
2013-03-31 02:42:00,50.0,49.0,-100.00,SSE,150,4.0,7.0,99,0.00,,,-99.99,,2013-03-31 06:42:00,
2013-03-31 02:52:00,50.0,49.0,-100.00,SE,140,4.0,8.0,99,0.00,,,-99.99,,2013-03-31 06:52:00,
2013-03-31 03:02:00,50.0,49.0,-100.00,SSE,155,3.0,6.0,99,0.00,,,-99.99,,2013-03-31 07:02:00,
2013-03-31 03:12:00,50.0,49.0,-100.00,SSE,150,4.0,7.0,99,0.00,,,-99.99,,2013-03-31 07:12:00,
2013-03-31 03:22:00,49.0,49.0,-100.00,SE,145,3.0,8.0,99,0.00,,,-99.99,,2013-03-31 07:22:00,
2013-03-31 03:33:00,49.0,49.0,-100.00,SE,145,4.0,9.0,99,0.00,,,-99.99,,2013-03-31 07:33:00,
2013-03-31 03:42:00,49.0,49.0,-100.00,SE,140,4.0,7.0,99,0.00,,,-99.99,,2013-03-31 07:42:00,
2013-03-31 03:52:00,49.0,49.0,-100.00,SE,135,4.0,7.0,99,0.00,,,-99.99,,2013-03-31 07:52:00,
2013-03-31 04:02:00,49.0,49.0,-100.00,SE,140,4.0,7.0,99,0.00,,,-99.99,,2013-03-31 08:02:00,
2013-03-31 04:12:00,49.0,49.0,-100.00,SE,140,3.0,9.0,99,0.00,,,-99.99,,2013-03-31 08:12:00,
2013-03-31 04:22:00,49.0,49.0,-100.00,SE,145,4.0,8.0,99,0.00,,,-99.99,,2013-03-31 08:22:00,
2013-03-31 04:32:00,49.0,49.0,-100.00,SE,145,4.0,9.0,99,0.00,,,-99.99,,2013-03-31 08:32:00,
2013-03-31 04:42:00,49.0,49.0,-100.00,SSE,150,4.0,7.0,99,0.00,,,-99.99,,2013-03-31 08:42:00,
2013-03-31 04:52:00,49.0,49.0,-100.00,SSE,155,4.0,8.0,99,0.00,,,-99.99,,2013-03-31 08:52:00,
2013-03-31 05:02:00,49.0,49.0,-100.00,SSE,150,4.0,8.0,99,0.00,,,-99.99,,2013-03-31 09:02:00,
2013-03-31 05:12:00,49.0,49.0,-100.00,SE,140,3.0,9.0,99,0.00,,,-99.99,,2013-03-31 09:12:00,
2013-03-31 05:22:00,49.0,49.0,-100.00,SSE,150,3.0,6.0,99,0.00,,,-99.99,,2013-03-31 09:22:00,
2013-03-31 05:33:00,49.0,49.0,-100.00,SSE,155,3.0,6.0,99,0.00,,,-99.99,,2013-03-31 09:33:00,
2013-03-31 05:42:00,49.0,49.0,-100.00,SSE,155,3.0,6.0,99,0.00,,,-99.99,,2013-03-31 09:42:00,
2013-03-31 05:53:00,49.0,49.0,-100.00,SE,140,3.0,6.0,99,0.00,,,-99.99,,2013-03-31 09:53:00,
2013-03-31 06:03:00,49.0,49.0,-100.00,SSE,150,4.0,7.0,99,0.00,,,-99.99,,2013-03-31 10:03:00,
2013-03-31 06:13:00,49.0,49.0,-100.00,SE,140,4.0,6.0,99,0.00,,,-99.99,,2013-03-31 10:13:00,
2013-03-31 06:24:00,49.0,49.0,-100.00,SE,145,4.0,6.0,99,0.00,,,-99.99,,2013-03-31 10:24:00,
2013-03-31 06:33:00,49.0,49.0,-100.00,SE,145,4.0,6.0,99,0.00,,,-99.99,,2013-03-31 10:33:00,
2013-03-31 06:42:00,49.0,49.0,-100.00,SSE,150,4.0,6.0,99,0.00,,,-99.99,,2013-03-31 10:42:00,
2013-03-31 06:53:00,49.0,49.0,-100.00,SE,140,3.0,7.0,99,0.00,,,-99.99,,2013-03-31 10:53:00,
2013-03-31 07:03:00,49.0,49.0,-100.00,SE,140,3.0,7.0,99,0.00,,,-99.99,,2013-03-31 11:03:00,
2013-03-31 07:12:00,49.0,49.0,-100.00,SE,140,3.0,7.0,99,0.00,,,-99.99,,2013-03-31 11:12:00,
2013-03-31 07:23:00,49.0,49.0,-100.00,SSE,150,6.0,9.0,99,0.00,,,-99.99,,2013-03-31 11:23:00,
2013-03-31 07:33:00,49.0,49.0,-100.00,SE,135,4.0,6.0,99,0.00,,,-99.99,,2013-03-31 11:33:00,
2013-03-31 07:42:00,49.0,49.0,-100.00,SE,140,3.0,6.0,99,0.00,,,-99.99,,2013-03-31 11:42:00,
2013-03-31 07:52:00,49.0,49.0,-100.00,SE,145,4.0,7.0,99,0.00,,,-99.99,,2013-03-31 11:52:00,
2013-03-31 08:03:00,49.0,49.0,-100.00,SE,140,4.0,7.0,99,0.00,,,-99.99,,2013-03-31 12:03:00,
2013-03-31 08:12:00,49.0,49.0,-100.00,SSE,160,4.0,7.0,99,0.00,,,-99.99,,2013-03-31 12:12:00,
2013-03-31 08:22:00,49.0,49.0,-100.00,SSE,160,4.0,9.0,99,0.00,,,-99.99,,2013-03-31 12:22:00,
2013-03-31 08:33:00,49.0,49.0,-100.00,SE,140,4.0,7.0,99,0.00,,,-99.99,,2013-03-31 12:33:00,
2013-03-31 08:42:00,49.0,49.0,-100.00,SSE,150,3.0,7.0,99,0.00,,,-99.99,,2013-03-31 12:42:00,
2013-03-31 08:52:00,50.0,49.0,-100.00,SE,145,4.0,9.0,99,0.00,,,-99.99,,2013-03-31 12:52:00,
2013-03-31 09:02:00,51.0,51.0,-100.00,SE,135,4.0,9.0,99,0.00,,,-99.99,,2013-03-31 13:02:00,
2013-03-31 09:12:00,51.0,51.0,-100.00,SSE,160,6.0,12.0,99,0.00,,,-99.99,,2013-03-31 13:12:00,
2013-03-31 09:22:00,51.0,51.0,-100.00,SE,140,4.0,11.0,99,0.00,,,-99.99,,2013-03-31 13:22:00,
2013-03-31 09:32:00,52.0,52.0,-100.00,SSE,165,6.0,9.0,99,0.00,,,-99.99,,2013-03-31 13:32:00,
2013-03-31 09:42:00,53.0,52.0,-100.00,SE,145,4.0,9.0,99,0.00,,,-99.99,,2013-03-31 13:42:00,
2013-03-31 09:52:00,54.0,54.0,-100.00,SSE,165,5.0,10.0,99,0.00,,,-99.99,,2013-03-31 13:52:00,
2013-03-31 10:02:00,55.0,55.0,-100.00,SSE,165,6.0,14.0,99,0.00,,,-99.99,,2013-03-31 14:02:00,
2013-03-31 10:12:00,56.0,56.0,-100.00,SSE,165,9.0,14.0,99,0.00,,,-99.99,,2013-03-31 14:12:00,
2013-03-31 10:22:00,55.0,54.0,-100.00,SSE,160,9.0,17.0,99,0.00,,,-99.99,,2013-03-31 14:22:00,
2013-03-31 10:33:00,54.0,54.0,-100.00,SSE,155,7.0,13.0,99,0.00,,,-99.99,,2013-03-31 14:33:00,
2013-03-31 10:42:00,54.0,54.0,-100.00,SSE,165,9.0,13.0,99,0.00,,,-99.99,,2013-03-31 14:42:00,
2013-03-31 10:52:00,54.0,54.0,-100.00,SSE,165,9.0,13.0,99,0.00,,,-99.99,,2013-03-31 14:52:00,
2013-03-31 11:03:00,57.0,57.0,-100.00,SSE,150,8.0,13.0,99,0.00,,,-99.99,,2013-03-31 15:03:00,
2013-03-31 11:13:00,57.0,57.0,-100.00,South,170,7.0,12.0,99,0.00,,,-99.99,,2013-03-31 15:13:00,
2013-03-31 11:22:00,57.0,57.0,-100.00,South,180,7.0,14.0,99,0.00,,,-99.99,,2013-03-31 15:22:00,
2013-03-31 11:34:00,56.0,56.0,-100.00,South,180,9.0,16.0,99,0.00,,,-99.99,,2013-03-31 15:34:00,
2013-03-31 11:43:00,56.0,56.0,-100.00,SSE,155,9.0,17.0,99,0.00,,,-99.99,,2013-03-31 15:43:00,
2013-03-31 11:53:00,56.0,56.0,-100.00,South,180,9.0,15.0,99,0.00,,,-99.99,,2013-03-31 15:53:00,
2013-03-31 12:03:00,56.0,56.0,-100.00,SSE,160,7.0,15.0,99,0.00,,,-99.99,,2013-03-31 16:03:00,
2013-03-31 12:13:00,57.0,57.0,-100.00,South,190,7.0,13.0,99,0.00,,,-99.99,,2013-03-31 16:13:00,
2013-03-31 12:23:00,57.0,57.0,-100.00,SSE,160,6.0,14.0,99,0.00,,,-99.99,,2013-03-31 16:23:00,
2013-03-31 12:33:00,57.0,57.0,-100.00,South,175,7.0,17.0,99,0.00,,,-99.99,,2013-03-31 16:33:00,
2013-03-31 12:43:00,58.0,58.0,-100.00,SSW,195,7.0,13.0,99,0.00,,,-99.99,,2013-03-31 16:43:00,
2013-03-31 12:53:00,58.0,57.0,-100.00,SSW,195,7.0,17.0,99,0.00,,,-99.99,,2013-03-31 16:53:00,
2013-03-31 13:03:00,58.0,58.0,-100.00,South,170,10.0,13.0,99,0.00,,,-99.99,,2013-03-31 17:03:00,
2013-03-31 13:12:00,58.0,57.0,-100.00,South,180,9.0,16.0,99,0.00,,,-99.99,,2013-03-31 17:12:00,
2013-03-31 13:23:00,58.0,57.0,-100.00,South,180,7.0,20.0,99,0.00,,,-99.99,,2013-03-31 17:23:00,
2013-03-31 13:32:00,58.0,57.0,-100.00,South,185,6.0,16.0,99,0.00,,,-99.99,,2013-03-31 17:32:00,
2013-03-31 13:43:00,57.0,57.0,-100.00,South,185,6.0,14.0,99,0.00,,,-99.99,,2013-03-31 17:43:00,
2013-03-31 13:52:00,58.0,57.0,-100.00,SSW,200,7.0,16.0,99,0.00,,,-99.99,,2013-03-31 17:52:00,
2013-03-31 14:03:00,57.0,57.0,-100.00,South,185,9.0,16.0,99,0.00,,,-99.99,,2013-03-31 18:03:00,
2013-03-31 14:13:00,57.0,57.0,-100.00,South,170,8.0,16.0,99,0.00,,,-99.99,,2013-03-31 18:13:00,
2013-03-31 14:22:00,57.0,57.0,-100.00,South,170,8.0,16.0,99,0.00,,,-99.99,,2013-03-31 18:22:00,
2013-03-31 14:33:00,56.0,56.0,-100.00,SSE,155,7.0,16.0,99,0.00,,,-99.99,,2013-03-31 18:33:00,
2013-03-31 14:42:00,56.0,56.0,-100.00,SSW,195,6.0,11.0,99,0.00,,,-99.99,,2013-03-31 18:42:00,
2013-03-31 14:52:00,56.0,56.0,-100.00,South,185,3.0,9.0,99,0.00,,,-99.99,,2013-03-31 18:52:00,
2013-03-31 15:03:00,55.0,55.0,-100.00,SSW,210,6.0,11.0,99,0.00,,,-99.99,,2013-03-31 19:03:00,
2013-03-31 15:12:00,55.0,55.0,-100.00,SSW,210,6.0,11.0,99,0.00,,,-99.99,,2013-03-31 19:12:00,
2013-03-31 15:22:00,55.0,55.0,-100.00,SW,220,4.0,13.0,99,0.55,,,-99.99,,2013-03-31 19:22:00,
2013-03-31 15:33:00,54.0,54.0,-100.00,SSW,210,6.0,9.0,99,0.55,,,-99.99,,2013-03-31 19:33:00,
2013-03-31 15:43:00,54.0,54.0,-100.00,SSW,210,5.0,9.0,99,0.00,,,-99.99,,2013-03-31 19:43:00,
2013-03-31 15:54:00,54.0,54.0,-100.00,SSW,205,3.0,6.0,99,0.00,,,-99.99,,2013-03-31 19:54:00,
2013-03-31 16:03:00,54.0,54.0,-100.00,SSW,200,4.0,7.0,99,0.00,,,-99.99,,2013-03-31 20:03:00,
2013-03-31 16:12:00,54.0,54.0,-100.00,South,185,6.0,9.0,99,0.00,,,-99.99,,2013-03-31 20:12:00,
2013-03-31 16:23:00,54.0,54.0,-100.00,SSW,210,3.0,7.0,99,0.00,,,-99.99,,2013-03-31 20:23:00,
2013-03-31 16:34:00,54.0,54.0,-100.00,SSW,210,7.0,12.0,99,0.00,,,-99.99,,2013-03-31 20:34:00,
2013-03-31 16:43:00,54.0,54.0,-100.00,SW,215,6.0,12.0,99,0.00,,,-99.99,,2013-03-31 20:43:00,
2013-03-31 16:52:00,54.0,54.0,-100.00,SW,225,5.0,11.0,99,0.00,,,-99.99,,2013-03-31 20:52:00,
2013-03-31 17:03:00,52.0,52.0,-100.00,WSW,255,7.0,14.0,99,0.00,,,-99.99,,2013-03-31 21:03:00,
2013-03-31 17:12:00,52.0,52.0,-100.00,SW,230,4.0,10.0,99,0.00,,,-99.99,,2013-03-31 21:12:00,
2013-03-31 17:22:00,52.0,52.0,-100.00,West,265,7.0,11.0,99,0.00,,,-99.99,,2013-03-31 21:22:00,
2013-03-31 17:34:00,52.0,52.0,-100.00,West,265,9.0,13.0,99,0.00,,,-99.99,,2013-03-31 21:34:00,
2013-03-31 17:43:00,52.0,51.0,-100.00,SW,230,6.0,15.0,99,0.00,,,-99.99,,2013-03-31 21:43:00,
2013-03-31 17:53:00,52.0,52.0,-100.00,West,265,7.0,14.0,99,0.00,,,-99.99,,2013-03-31 21:53:00,
2013-03-31 18:04:00,52.0,52.0,-100.00,West,270,7.0,11.0,99,0.00,,,-99.99,,2013-03-31 22:04:00,
2013-03-31 18:13:00,53.0,53.0,-100.00,WSW,245,6.0,10.0,99,0.00,,,-99.99,,2013-03-31 22:13:00,
2013-03-31 18:23:00,55.0,55.0,-100.00,SW,225,5.0,9.0,99,0.00,,,-99.99,,2013-03-31 22:23:00,
2013-03-31 18:33:00,55.0,55.0,-100.00,SW,225,5.0,12.0,99,0.00,,,-99.99,,2013-03-31 22:33:00,
2013-03-31 18:42:00,55.0,55.0,-100.00,SW,225,6.0,13.0,99,0.00,,,-99.99,,2013-03-31 22:42:00,
2013-03-31 18:53:00,55.0,55.0,-100.00,SW,230,7.0,11.0,99,0.00,,,-99.99,,2013-03-31 22:53:00,
2013-03-31 19:03:00,56.0,56.0,-100.00,SW,215,6.0,12.0,99,0.00,,,-99.99,,2013-03-31 23:03:00,
2013-03-31 19:13:00,56.0,55.0,-100.00,SSW,210,4.0,8.0,99,0.00,,,-99.99,,2013-03-31 23:13:00,
2013-03-31 19:22:00,55.0,55.0,-100.00,SSW,200,5.0,11.0,99,0.00,,,-99.99,,2013-03-31 23:22:00,
2013-03-31 19:32:00,55.0,55.0,-100.00,SSW,205,6.0,12.0,99,0.00,,,-99.99,,2013-03-31 23:32:00,
2013-03-31 19:42:00,55.0,55.0,-100.00,SW,215,6.0,11.0,99,0.00,,,-99.99,,2013-03-31 23:42:00,
2013-03-31 19:53:00,55.0,54.0,-100.00,SSW,200,3.0,8.0,99,0.00,,,-99.99,,2013-03-31 23:53:00,
2013-03-31 20:02:00,54.0,54.0,-100.00,South,180,3.0,9.0,99,0.00,,,-99.99,,2013-04-01 00:02:00,
2013-03-31 20:13:00,54.0,54.0,-100.00,South,185,4.0,7.0,99,0.00,,,-99.99,,2013-04-01 00:13:00,
2013-03-31 20:22:00,54.0,53.0,-100.00,South,175,6.0,10.0,99,0.00,,,-99.99,,2013-04-01 00:22:00,
2013-03-31 20:32:00,54.0,54.0,-100.00,SSE,165,7.0,9.0,99,0.00,,,-99.99,,2013-04-01 00:32:00,
2013-03-31 20:43:00,54.0,54.0,-100.00,South,180,7.0,11.0,99,0.00,,,-99.99,,2013-04-01 00:43:00,
2013-03-31 20:52:00,54.0,54.0,-100.00,South,170,7.0,11.0,99,0.00,,,-99.99,,2013-04-01 00:52:00,
2013-03-31 21:03:00,54.0,54.0,-100.00,SSE,165,7.0,11.0,99,0.00,,,-99.99,,2013-04-01 01:03:00,
2013-03-31 21:12:00,54.0,54.0,-100.00,SSE,165,7.0,12.0,99,0.00,,,-99.99,,2013-04-01 01:12:00,
2013-03-31 21:23:00,54.0,53.0,-100.00,SSE,165,6.0,12.0,99,0.00,,,-99.99,,2013-04-01 01:23:00,
2013-03-31 21:33:00,53.0,53.0,-100.00,SSE,165,7.0,10.0,99,0.00,,,-99.99,,2013-04-01 01:33:00,
2013-03-31 21:42:00,53.0,53.0,-100.00,SSE,165,6.0,10.0,99,0.00,,,-99.99,,2013-04-01 01:42:00,
2013-03-31 21:52:00,54.0,53.0,-100.00,SSE,160,7.0,13.0,99,0.00,,,-99.99,,2013-04-01 01:52:00,
2013-03-31 22:03:00,54.0,54.0,-100.00,SSW,210,6.0,11.0,99,0.00,,,-99.99,,2013-04-01 02:03:00,
2013-03-31 22:13:00,54.0,53.0,-100.00,SE,145,4.0,9.0,99,0.00,,,-99.99,,2013-04-01 02:13:00,
2013-03-31 22:23:00,53.0,53.0,-100.00,SSW,205,5.0,10.0,99,0.00,,,-99.99,,2013-04-01 02:23:00,
2013-03-31 22:33:00,54.0,54.0,-100.00,SSW,210,6.0,9.0,99,0.00,,,-99.99,,2013-04-01 02:33:00,
2013-03-31 22:42:00,54.0,54.0,-100.00,SSW,210,6.0,9.0,99,0.00,,,-99.99,,2013-04-01 02:42:00,
2013-03-31 22:52:00,53.0,53.0,-100.00,SSW,210,7.0,17.0,99,0.00,,,-99.99,,2013-04-01 02:52:00,
2013-03-31 23:03:00,52.0,52.0,-100.00,SSE,165,4.0,12.0,99,0.00,,,-99.99,,2013-04-01 03:03:00,
2013-03-31 23:12:00,52.0,52.0,-100.00,SSE,165,4.0,6.0,99,0.00,,,-99.99,,2013-04-01 03:12:00,
2013-03-31 23:23:00,52.0,52.0,-100.00,SSE,165,4.0,7.0,99,0.00,,,-99.99,,2013-04-01 03:23:00,
2013-03-31 23:34:00,52.0,52.0,-100.00,SW,235,7.0,12.0,99,0.55,,,-99.99,,2013-04-01 03:34:00,
2013-03-31 23:43:00,51.0,51.0,-100.00,SSW,200,6.0,17.0,99,1.69,,,-99.99,,2013-04-01 03:43:00,
2013-03-31 23:53:00,51.0,51.0,-100.00,SSE,165,6.0,9.0,99,0.00,,,-99.99,,2013-04-01 03:53:00,